REV6ND LXGB-LXGB

Flight info

Callsign REV6ND
Flight time N/A
Altitude 5000
Route XRAY DCT 09D05 DCT 09D06 DCT STAY/0100 361332N0052256WFL051 DCT 27D10 DCT 27D06 DCT 27D05 DCT YANKE
Aircraft F406/L-DFGIP3RVY/S

Departure

Time 2026-04-30 20:40
Airport Gibraltar Airport (LXGB)

Arrival

Time N/A
Airport Gibraltar Airport (LXGB)
Time Latitude Longitude Altitude Speed Heading
2026-04-30 20:28 36.15336 -5.34388 13 ft 0 kts 104°
2026-04-30 20:35 36.15333 -5.34374 12 ft 2 kts 120°
2026-04-30 20:36 36.15323 -5.34370 12 ft 2 kts 188°
2026-04-30 20:36 36.15288 -5.34385 10 ft 8 kts 200°
2026-04-30 20:36 36.15238 -5.34381 9 ft 5 kts 94°
2026-04-30 20:37 36.15240 -5.34311 9 ft 11 kts 86°
2026-04-30 20:37 36.15237 -5.34255 10 ft 8 kts 118°
2026-04-30 20:37 36.15184 -5.34229 10 ft 10 kts 178°
2026-04-30 20:37 36.15146 -5.34203 11 ft 5 kts 104°
2026-04-30 20:38 36.15148 -5.34147 11 ft 9 kts 85°
2026-04-30 20:38 36.15170 -5.34092 11 ft 9 kts 55°
2026-04-30 20:38 36.15181 -5.34048 11 ft 2 kts 119°
2026-04-30 20:39 36.15147 -5.34072 11 ft 13 kts 284°
2026-04-30 20:39 36.15149 -5.34238 10 ft 26 kts 267°
2026-04-30 20:39 36.15138 -5.34517 12 ft 36 kts 267°
2026-04-30 20:40 36.15095 -5.35563 174 ft 118 kts 265°
2026-04-30 20:40 36.15068 -5.36948 593 ft 156 kts 264°
2026-04-30 20:40 36.14671 -5.38105 1066 ft 158 kts 240°
2026-04-30 20:41 36.13896 -5.39862 1799 ft 171 kts 236°
2026-04-30 20:41 36.13073 -5.40522 2265 ft 170 kts 200°
2026-04-30 20:41 36.11871 -5.40685 2776 ft 179 kts 179°
2026-04-30 20:41 36.10429 -5.40639 3381 ft 184 kts 178°
2026-04-30 20:42 36.09225 -5.40068 3889 ft 188 kts 143°
2026-04-30 20:42 36.08222 -5.39120 4403 ft 189 kts 147°
2026-04-30 20:42 36.07385 -5.36684 5252 ft 180 kts 89°
2026-04-30 20:43 36.07529 -5.34892 5168 ft 200 kts 86°
2026-04-30 20:43 36.07661 -5.33276 5134 ft 205 kts 86°
2026-04-30 20:43 36.08037 -5.31535 5110 ft 205 kts 58°
2026-04-30 20:44 36.10560 -5.30257 5102 ft 201 kts 344°
2026-04-30 20:44 36.11632 -5.31076 5104 ft 199 kts 311°
2026-04-30 20:44 36.13451 -5.33905 5102 ft 200 kts 315°
2026-04-30 20:45 36.15411 -5.35550 5102 ft 202 kts 330°
2026-04-30 20:45 36.16668 -5.36293 5098 ft 202 kts 333°
2026-04-30 20:45 36.18094 -5.36848 5100 ft 203 kts 343°
2026-04-30 20:46 36.20477 -5.37531 5108 ft 203 kts 341°